{"data":{"norad_id":66161,"intl_designator":"2025-240R","name":"STARLINK-35635","alt_names":[],"object_type":"PAYLOAD","status":"ACTIVE","operator":null,"country":"US","launch_date":"2025-10-25","launch_site_code":"AFWTR","launch_vehicle":null,"mission":null,"orbit_class":"UNKNOWN","rcs_meters":null,"size_class":null,"mass_kg":null,"dimensions":null,"purposes":["comms"],"wikipedia_slug":null,"has_3d_model":false,"image_url":null,"decayed_at":null,"tle_current":{"epoch":"2026-09-20T22:43:43.659840Z","epoch_age_seconds":61782,"freshness":"FRESH","line1":"1 66161U 25240R   26263.94703310  .00019373  00000+0  58257-3 0  9991","line2":"2 66161  53.1569 233.7088 0000790  52.4481 307.6593 15.34423571 51916","mean_motion":15.34423571,"eccentricity":7.9e-5,"inclination_deg":53.1569,"raan_deg":233.7088,"arg_perigee_deg":52.4481,"mean_anomaly_deg":307.6593,"bstar":0.00058257,"rev_number":5191,"period_min":93.846316441916,"perigee_km":462.0927622801,"apogee_km":463.17360396904,"semimajor_km":6840.7701831246,"source":"CELESTRAK","updated_at":"2026-09-21T09:00:35.815364Z"}}}